| time (UTC) | temp F | wind direction | speed MPH | gust MPH | rain 1hr in | rain 24hr in | rain mn in | humidity % | barometer mb |
| 20260901161110 | 77 | 157 | 0.0 | 0.0 | 0.00 | 0.03 | 0.03 | 87 | 1013.7 |
| 20260901160607 | 76 | 186 | 0.0 | 0.0 | 0.00 | 0.03 | 0.03 | 87 | 1014.1 |
| 20260901155601 | 75 | 188 | 1.0 | 1.0 | 0.00 | 0.03 | 0.03 | 88 | 1014.1 |
| 20260901155057 | 75 | 193 | 1.0 | 1.0 | 0.00 | 0.03 | 0.03 | 90 | 1014.3 |
| 20260901154556 | 75 | 201 | 2.0 | 2.0 | 0.00 | 0.03 | 0.03 | 91 | 1013.9 |
| 20260901154051 | 74 | 192 | 3.0 | 3.0 | 0.00 | 0.03 | 0.03 | 93 | 1014.3 |
| 20260901153546 | 73 | 172 | 1.0 | 1.0 | 0.00 | 0.03 | 0.03 | 96 | 1014.2 |
| 20260901153046 | 72 | 199 | 1.0 | 2.0 | 0.00 | 0.03 | 0.03 | 98 | 1014.3 |
| 20260901152541 | 72 | 166 | 0.0 | 0.0 | 0.00 | 0.03 | 0.03 | 99 | 1013.9 |
| 20260901152039 | 72 | 169 | 0.0 | 0.0 | 0.00 | 0.03 | 0.03 | 99 | 1014.1 |
| 20260901151535 | 72 | 170 | 0.0 | 0.0 | 0.00 | 0.03 | 0.03 | 99 | 1013.8 |
| 20260901151035 | 72 | 164 | 0.0 | 0.0 | 0.00 | 0.03 | 0.03 | 99 | 1014.1 |
| 20260901150533 | 71 | 155 | 0.0 | 0.0 | 0.00 | 0.03 | 0.03 | 99 | 1014.1 |
| 20260901150031 | 71 | 150 | 0.0 | 0.0 | 0.00 | 0.03 | 0.03 | 99 | 1014.4 |
| 20260901145525 | 71 | 154 | 0.0 | 0.0 | 0.00 | 0.03 | 0.03 | 99 | 1014.2 |
| 20260901145024 | 70 | 153 | 0.0 | 0.0 | 0.00 | 0.03 | 0.03 | 99 | 1014.4 |
| 20260901144521 | 70 | 153 | 0.0 | 0.0 | 0.00 | 0.03 | 0.03 | 99 | 1014.5 |
| 20260901144015 | 70 | 153 | 0.0 | 0.0 | 0.00 | 0.03 | 0.03 | 99 | 1014.3 |
| 20260901143511 | 70 | 153 | 0.0 | 0.0 | 0.00 | 0.03 | 0.03 | 99 | 1014.4 |
| 20260901143008 | 70 | 157 | 0.0 | 0.0 | 0.00 | 0.03 | 0.03 | 99 | 1014.3 |
| 20260901142502 | 70 | 154 | 0.0 | 0.0 | 0.00 | 0.03 | 0.03 | 99 | 1014.2 |
| 20260901141957 | 70 | 157 | 0.0 | 0.0 | 0.00 | 0.03 | 0.03 | 99 | 1014.4 |
| 20260901141456 | 70 | 157 | 0.0 | 0.0 | 0.00 | 0.03 | 0.03 | 99 | 1014.4 |
| 20260901140952 | 70 | 157 | 0.0 | 0.0 | 0.00 | 0.03 | 0.03 | 99 | 1014.4 |
| 20260901140449 | 70 | 159 | 0.0 | 0.0 | 0.00 | 0.03 | 0.03 | 99 | 1014.3 |
| 20260901135944 | 70 | 158 | 0.0 | 0.0 | 0.00 | 0.03 | 0.03 | 99 | 1014.2 |
| 20260901135439 | 70 | 163 | 0.0 | 0.0 | 0.00 | 0.03 | 0.03 | 99 | 1014.2 |
| 20260901134935 | 69 | 158 | 0.0 | 0.0 | 0.00 | 0.03 | 0.03 | 99 | 1013.9 |
| 20260901134430 | 69 | 171 | 0.0 | 0.0 | 0.00 | 0.03 | 0.03 | 99 | 1013.9 |
| 20260901133930 | 69 | 163 | 0.0 | 0.0 | 0.00 | 0.03 | 0.03 | 99 | 1014.1 |
| 20260901133429 | 69 | 164 | 0.0 | 0.0 | 0.00 | 0.03 | 0.03 | 99 | 1013.9 |
| 20260901132928 | 69 | 168 | 0.0 | 0.0 | 0.00 | 0.03 | 0.03 | 99 | 1014.1 |
| 20260901132423 | 69 | 183 | 0.0 | 0.0 | 0.00 | 0.03 | 0.03 | 99 | 1014.1 |
| 20260901131922 | 69 | 169 | 0.0 | 0.0 | 0.00 | 0.03 | 0.03 | 99 | 1013.9 |
| 20260901131422 | 69 | 168 | 0.0 | 0.0 | 0.00 | 0.03 | 0.03 | 99 | 1014.1 |
| 20260901130918 | 69 | 166 | 0.0 | 0.0 | 0.00 | 0.03 | 0.03 | 99 | 1014.1 |
| 20260901130417 | 68 | 164 | 0.0 | 0.0 | 0.00 | 0.03 | 0.03 | 99 | 1013.9 |
| 20260901125915 | 68 | 159 | 0.0 | 0.0 | 0.00 | 0.03 | 0.03 | 99 | 1014.3 |
| 20260901125415 | 68 | 156 | 0.0 | 0.0 | 0.00 | 0.03 | 0.03 | 99 | 1014.2 |
| 20260901124909 | 68 | 154 | 0.0 | 0.0 | 0.00 | 0.03 | 0.03 | 99 | 1014.7 |
| 20260901124404 | 68 | 152 | 0.0 | 0.0 | 0.00 | 0.03 | 0.03 | 99 | 1014.3 |
| 20260901123900 | 68 | 154 | 0.0 | 0.0 | 0.00 | 0.03 | 0.03 | 99 | 1014.6 |
| 20260901123354 | 68 | 152 | 0.0 | 0.0 | 0.00 | 0.03 | 0.03 | 99 | 1014.6 |
| 20260901122852 | 68 | 149 | 0.0 | 0.0 | 0.00 | 0.03 | 0.03 | 99 | 1014.4 |
| 20260901122347 | 68 | 150 | 0.0 | 0.0 | 0.00 | 0.03 | 0.03 | 99 | 1014.5 |
| 20260901121846 | 68 | 154 | 0.0 | 0.0 | 0.00 | 0.03 | 0.03 | 99 | 1014.6 |
| 20260901121341 | 68 | 150 | 0.0 | 0.0 | 0.00 | 0.03 | 0.03 | 99 | 1014.7 |
| 20260901120837 | 68 | 150 | 0.0 | 0.0 | 0.00 | 0.03 | 0.03 | 99 | 1014.4 |
| 20260901120331 | 68 | 150 | 0.0 | 0.0 | 0.00 | 0.03 | 0.03 | 99 | 1014.5 |
| 20260901115827 | 68 | 151 | 0.0 | 0.0 | 0.00 | 0.03 | 0.03 | 99 | 1014.5 |
| 20260901115321 | 68 | 151 | 0.0 | 0.0 | 0.00 | 0.03 | 0.03 | 99 | 1014.6 |
| 20260901114820 | 68 | 151 | 0.0 | 0.0 | 0.00 | 0.03 | 0.03 | 99 | 1014.6 |
| 20260901114314 | 67 | 150 | 0.0 | 0.0 | 0.00 | 0.03 | 0.03 | 99 | 1014.2 |
| 20260901113813 | 67 | 150 | 0.0 | 0.0 | 0.00 | 0.03 | 0.03 | 99 | 1014.6 |
| 20260901113307 | 67 | 149 | 0.0 | 0.0 | 0.00 | 0.03 | 0.03 | 99 | 1014.5 |
| 20260901112802 | 67 | 150 | 0.0 | 0.0 | 0.00 | 0.03 | 0.03 | 99 | 1014.6 |
| 20260901112305 | 67 | 150 | 0.0 | 0.0 | 0.00 | 0.03 | 0.03 | 99 | 1014.6 |
| 20260901111756 | 67 | 151 | 0.0 | 0.0 | 0.00 | 0.03 | 0.03 | 99 | 1014.6 |
| 20260901111255 | 67 | 147 | 0.0 | 0.0 | 0.00 | 0.03 | 0.03 | 99 | 1014.6 |
| 20260901110754 | 67 | 147 | 0.0 | 0.0 | 0.00 | 0.03 | 0.03 | 99 | 1014.6 |
| 20260901110250 | 67 | 146 | 0.0 | 0.0 | 0.00 | 0.03 | 0.03 | 99 | 1014.7 |
| 20260901105746 | 67 | 147 | 0.0 | 0.0 | 0.00 | 0.03 | 0.03 | 99 | 1014.5 |
| 20260901105246 | 67 | 152 | 0.0 | 0.0 | 0.00 | 0.03 | 0.03 | 99 | 1014.8 |
| 20260901104742 | 67 | 155 | 0.0 | 0.0 | 0.00 | 0.03 | 0.03 | 99 | 1014.9 |
| 20260901104237 | 67 | 150 | 0.0 | 0.0 | 0.00 | 0.03 | 0.03 | 99 | 1014.4 |
| 20260901103737 | 67 | 153 | 0.0 | 0.0 | 0.00 | 0.03 | 0.03 | 99 | 1014.3 |
| 20260901103232 | 67 | 152 | 0.0 | 0.0 | 0.00 | 0.03 | 0.03 | 99 | 1014.3 |
| 20260901102727 | 67 | 153 | 0.0 | 0.0 | 0.00 | 0.03 | 0.03 | 99 | 1014.3 |
| 20260901102226 | 67 | 151 | 0.0 | 0.0 | 0.00 | 0.03 | 0.03 | 99 | 1014.2 |
| 20260901101723 | 67 | 152 | 0.0 | 0.0 | 0.00 | 0.03 | 0.03 | 99 | 1014.3 |
| 20260901101222 | 67 | 153 | 0.0 | 0.0 | 0.00 | 0.03 | 0.03 | 99 | 1014.3 |
| 20260901100716 | 67 | 153 | 0.0 | 0.0 | 0.00 | 0.03 | 0.03 | 99 | 1014.2 |
| 20260901100212 | 67 | 151 | 0.0 | 0.0 | 0.00 | 0.03 | 0.03 | 99 | 1014.4 |
| 20260901095710 | 67 | 151 | 0.0 | 0.0 | 0.00 | 0.03 | 0.03 | 99 | 1014.1 |
| 20260901095208 | 67 | 151 | 0.0 | 0.0 | 0.00 | 0.03 | 0.03 | 99 | 1014.5 |
| 20260901094707 | 67 | 150 | 0.0 | 0.0 | 0.00 | 0.03 | 0.03 | 99 | 1014.8 |
| 20260901094202 | 67 | 152 | 0.0 | 0.0 | 0.00 | 0.03 | 0.03 | 99 | 1014.9 |
| 20260901093657 | 67 | 153 | 0.0 | 0.0 | 0.05 | 0.03 | 0.03 | 99 | 1014.7 |
| 20260901093156 | 67 | 147 | 0.0 | 0.0 | 0.05 | 0.03 | 0.03 | 99 | 1014.8 |
| 20260901092652 | 67 | 153 | 0.0 | 0.0 | 0.07 | 0.02 | 0.02 | 99 | 1015.0 |
| 20260901092148 | 67 | 149 | 0.0 | 0.0 | 0.07 | 0.02 | 0.02 | 99 | 1014.8 |
| 20260901091643 | 67 | 153 | 0.0 | 0.0 | 0.00 | 0.01 | 0.01 | 99 | 1014.7 |
| 20260901091138 | 67 | 158 | 0.0 | 0.0 | 0.00 | 0.01 | 0.01 | 99 | 1014.8 |
| 20260901090633 | 67 | 153 | 0.0 | 0.0 | 0.00 | 0.01 | 0.01 | 99 | 1014.8 |
| 20260901090128 | 67 | 153 | 0.0 | 0.0 | 0.00 | 0.01 | 0.01 | 99 | 1014.3 |
| 20260901085624 | 67 | 151 | 0.0 | 0.0 | 0.00 | 0.01 | 0.01 | 99 | 1014.4 |
| 20260901085120 | 67 | 153 | 0.0 | 0.0 | 0.00 | 0.01 | 0.01 | 99 | 1014.4 |
| 20260901084616 | 67 | 150 | 0.0 | 0.0 | 0.00 | 0.01 | 0.01 | 99 | 1014.6 |
| 20260901084112 | 67 | 151 | 0.0 | 0.0 | 0.00 | 0.01 | 0.01 | 99 | 1014.4 |
| 20260901083612 | 67 | 151 | 0.0 | 0.0 | 0.00 | 0.01 | 0.01 | 99 | 1014.4 |
| 20260901083110 | 67 | 153 | 0.0 | 0.0 | 0.00 | 0.01 | 0.01 | 99 | 1014.8 |
| 20260901082605 | 67 | 154 | 0.0 | 0.0 | 0.00 | 0.01 | 0.01 | 99 | 1014.5 |
| 20260901082101 | 67 | 152 | 0.0 | 0.0 | 0.00 | 0.01 | 0.01 | 99 | 1014.5 |
| 20260901081555 | 67 | 153 | 0.0 | 0.0 | 0.00 | 0.01 | 0.01 | 99 | 1014.9 |
| 20260901081050 | 68 | 153 | 0.0 | 0.0 | 0.00 | 0.01 | 0.01 | 99 | 1014.8 |
| 20260901080550 | 68 | 154 | 0.0 | 0.0 | 0.00 | 0.01 | 0.01 | 99 | 1015.0 |
| 20260901080049 | 68 | 153 | 0.0 | 0.0 | 0.00 | 0.01 | 0.01 | 99 | 1015.0 |
| 20260901075545 | 68 | 157 | 0.0 | 0.0 | 0.00 | 0.01 | 0.01 | 99 | 1014.7 |
| 20260901075044 | 68 | 159 | 0.0 | 0.0 | 0.00 | 0.01 | 0.01 | 99 | 1015.1 |
| 20260901074543 | 68 | 171 | 0.0 | 0.0 | 0.00 | 0.01 | 0.01 | 99 | 1015.2 |
| 20260901074039 | 68 | 161 | 0.0 | 0.0 | 0.00 | 0.01 | 0.01 | 99 | 1015.1 |
| 20260901073536 | 68 | 164 | 0.0 | 0.0 | 0.00 | 0.01 | 0.01 | 99 | 1015.4 |
| 20260901073031 | 68 | 157 | 0.0 | 0.0 | 0.00 | 0.01 | 0.01 | 99 | 1015.3 |
| 20260901072531 | 68 | 166 | 0.0 | 0.0 | 0.00 | 0.01 | 0.01 | 99 | 1015.6 |
| 20260901072026 | 68 | 168 | 0.0 | 0.0 | 0.00 | 0.01 | 0.01 | 99 | 1015.4 |
| 20260901071526 | 68 | 169 | 0.0 | 0.0 | 0.00 | 0.01 | 0.01 | 99 | 1015.6 |
| 20260901071024 | 68 | 165 | 0.0 | 0.0 | 0.05 | 0.01 | 0.01 | 99 | 1015.3 |
| 20260901070520 | 68 | 165 | 0.0 | 0.0 | 0.05 | 0.01 | 0.01 | 99 | 1015.5 |
| 20260901070015 | 68 | 167 | 0.0 | 0.0 | 0.00 | 0.00 | 0.00 | 99 | 1015.6 |
| 20260901065510 | 68 | 165 | 0.0 | 0.0 | 0.00 | 0.00 | 0.00 | 99 | 1015.5 |
| 20260901065004 | 68 | 165 | 0.0 | 0.0 | 0.00 | 0.00 | 0.00 | 99 | 1015.8 |
| 20260901064501 | 68 | 165 | 0.0 | 0.0 | 0.00 | 0.00 | 0.00 | 99 | 1015.6 |
| 20260901063957 | 68 | 166 | 0.0 | 0.0 | 0.00 | 0.00 | 0.00 | 99 | 1015.7 |
| 20260901063454 | 68 | 162 | 0.0 | 0.0 | 0.00 | 0.00 | 0.00 | 99 | 1016.0 |
| 20260901062949 | 68 | 163 | 0.0 | 0.0 | 0.00 | 0.00 | 0.00 | 99 | 1015.8 |
| 20260901062445 | 68 | 161 | 0.0 | 0.0 | 0.00 | 0.00 | 0.00 | 99 | 1015.9 |
| 20260901061941 | 68 | 159 | 0.0 | 0.0 | 0.00 | 0.00 | 0.00 | 99 | 1015.7 |
| 20260901061436 | 68 | 155 | 0.0 | 0.0 | 0.00 | 0.00 | 0.00 | 99 | 1015.8 |
| 20260901060931 | 68 | 157 | 0.0 | 0.0 | 0.00 | 0.00 | 0.00 | 99 | 1015.7 |
| 20260901060426 | 68 | 151 | 0.0 | 0.0 | 0.00 | 0.00 | 0.00 | 99 | 1015.6 |
| 20260901055925 | 68 | 158 | 0.0 | 0.0 | 0.00 | 0.00 | 0.00 | 99 | 1015.7 |
| 20260901055423 | 68 | 157 | 0.0 | 0.0 | 0.00 | 0.00 | 0.00 | 99 | 1015.9 |
| 20260901054919 | 68 | 157 | 0.0 | 0.0 | 0.00 | 0.00 | 0.00 | 99 | 1015.9 |
| 20260901054416 | 68 | 161 | 0.0 | 0.0 | 0.00 | 0.00 | 0.00 | 99 | 1016.0 |
| 20260901053911 | 68 | 163 | 0.0 | 0.0 | 0.00 | 0.00 | 0.00 | 99 | 1016.0 |
| 20260901053407 | 68 | 165 | 0.0 | 0.0 | 0.00 | 0.00 | 0.00 | 99 | 1016.1 |
| 20260901052902 | 68 | 158 | 0.0 | 0.0 | 0.00 | 0.00 | 0.00 | 99 | 1016.1 |
| 20260901052357 | 68 | 158 | 0.0 | 0.0 | 0.00 | 0.00 | 0.00 | 99 | 1016.5 |
| 20260901051856 | 68 | 162 | 0.0 | 0.0 | 0.00 | 0.00 | 0.00 | 99 | 1016.1 |
| 20260901051351 | 68 | 162 | 0.0 | 0.0 | 0.00 | 0.00 | 0.00 | 99 | 1016.2 |
| 20260901050846 | 67 | 166 | 0.0 | 0.0 | 0.00 | 0.00 | 0.00 | 99 | 1016.3 |
| 20260901050342 | 68 | 163 | 0.0 | 0.0 | 0.00 | 0.00 | 0.00 | 99 | 1016.4 |
| 20260901045837 | 67 | 157 | 0.0 | 0.0 | 0.00 | 0.00 | 0.00 | 99 | 1016.2 |
| 20260901045336 | 67 | 158 | 0.0 | 0.0 | 0.00 | 0.00 | 0.00 | 99 | 1016.4 |
| 20260901044832 | 67 | 160 | 0.0 | 0.0 | 0.00 | 0.00 | 0.00 | 99 | 1016.2 |
| 20260901044328 | 67 | 157 | 0.0 | 0.0 | 0.00 | 0.00 | 0.00 | 99 | 1016.1 |
| 20260901043823 | 67 | 157 | 0.0 | 0.0 | 0.00 | 0.00 | 0.00 | 99 | 1016.2 |
| 20260901043319 | 67 | 157 | 0.0 | 0.0 | 0.00 | 0.00 | 0.00 | 99 | 1016.4 |
| 20260901042818 | 68 | 157 | 0.0 | 0.0 | 0.00 | 0.00 | 0.00 | 99 | 1016.4 |
| 20260901042313 | 68 | 163 | 0.0 | 0.0 | 0.00 | 0.00 | 0.00 | 99 | 1016.2 |
| 20260901041809 | 68 | 161 | 0.0 | 0.0 | 0.00 | 0.00 | 0.00 | 99 | 1016.5 |
| 20260901041304 | 68 | 161 | 0.0 | 0.0 | 0.00 | 0.00 | 0.00 | 99 | 1016.3 |
| 20260901040758 | 67 | 161 | 0.0 | 0.0 | 0.00 | 0.00 | 0.00 | 99 | 1016.4 |
| 20260901040257 | 67 | 161 | 0.0 | 0.0 | 0.00 | 0.00 | 0.00 | 99 | 1016.5 |
| 20260901035756 | 67 | 162 | 0.0 | 0.0 | 0.00 | 0.08 | 0.08 | 99 | 1016.7 |
| 20260901035255 | 67 | 165 | 0.0 | 0.0 | 0.00 | 0.08 | 0.08 | 99 | 1016.5 |
| 20260901034754 | 67 | 161 | 0.0 | 0.0 | 0.00 | 0.08 | 0.08 | 99 | 1016.7 |
| 20260901034250 | 67 | 165 | 0.0 | 0.0 | 0.00 | 0.08 | 0.08 | 99 | 1016.6 |
| 20260901033749 | 67 | 166 | 0.0 | 0.0 | 0.00 | 0.08 | 0.08 | 99 | 1016.5 |
| 20260901033249 | 67 | 159 | 0.0 | 0.0 | 0.00 | 0.08 | 0.08 | 99 | 1016.5 |
| 20260901032747 | 67 | 161 | 0.0 | 0.0 | 0.00 | 0.08 | 0.08 | 99 | 1016.5 |
| 20260901032242 | 67 | 155 | 0.0 | 0.0 | 0.00 | 0.08 | 0.08 | 99 | 1016.4 |
| 20260901031737 | 67 | 155 | 0.0 | 0.0 | 0.00 | 0.08 | 0.08 | 99 | 1016.6 |
| 20260901031233 | 67 | 154 | 0.0 | 0.0 | 0.00 | 0.08 | 0.08 | 99 | 1016.6 |
| 20260901030728 | 67 | 156 | 0.0 | 0.0 | 0.00 | 0.08 | 0.08 | 99 | 1016.6 |
| 20260901030223 | 67 | 158 | 0.0 | 0.0 | 0.00 | 0.08 | 0.08 | 99 | 1016.5 |
| 20260901025722 | 67 | 157 | 0.0 | 0.0 | 0.00 | 0.08 | 0.08 | 99 | 1016.6 |
| 20260901025217 | 67 | 154 | 0.0 | 0.0 | 0.00 | 0.08 | 0.08 | 99 | 1016.7 |
| 20260901024711 | 66 | 159 | 0.0 | 0.0 | 0.00 | 0.08 | 0.08 | 99 | 1016.7 |
| 20260901024210 | 66 | 152 | 0.0 | 0.0 | 0.00 | 0.08 | 0.08 | 99 | 1016.9 |
| 20260901023709 | 66 | 152 | 0.0 | 0.0 | 0.00 | 0.08 | 0.08 | 99 | 1016.8 |
| 20260901023204 | 66 | 151 | 0.0 | 0.0 | 0.00 | 0.08 | 0.08 | 99 | 1016.6 |
| 20260901022659 | 66 | 151 | 0.0 | 0.0 | 0.00 | 0.08 | 0.08 | 99 | 1016.6 |
| 20260901022154 | 66 | 151 | 0.0 | 0.0 | 0.00 | 0.08 | 0.08 | 99 | 1016.8 |
| 20260901021650 | 66 | 151 | 0.0 | 0.0 | 0.00 | 0.08 | 0.08 | 99 | 1016.7 |
| 20260901021145 | 66 | 151 | 0.0 | 0.0 | 0.00 | 0.08 | 0.08 | 99 | 1016.6 |
| 20260901020641 | 66 | 151 | 0.0 | 0.0 | 0.00 | 0.08 | 0.08 | 99 | 1016.6 |
| 20260901020136 | 66 | 151 | 0.0 | 0.0 | 0.00 | 0.08 | 0.08 | 99 | 1016.7 |
| 20260901015631 | 66 | 150 | 0.0 | 0.0 | 0.00 | 0.08 | 0.08 | 99 | 1016.9 |
| 20260901015131 | 66 | 154 | 0.0 | 0.0 | 0.00 | 0.08 | 0.08 | 99 | 1017.1 |
| 20260901014631 | 66 | 154 | 0.0 | 0.0 | 0.00 | 0.08 | 0.08 | 99 | 1017.1 |
| 20260901014128 | 66 | 154 | 0.0 | 0.0 | 0.00 | 0.08 | 0.08 | 99 | 1017.2 |
| 20260901013623 | 66 | 154 | 0.0 | 0.0 | 0.00 | 0.08 | 0.08 | 99 | 1017.1 |
| 20260901013119 | 66 | 154 | 0.0 | 0.0 | 0.00 | 0.08 | 0.08 | 99 | 1017.0 |
| 20260901012619 | 66 | 154 | 0.0 | 0.0 | 0.00 | 0.08 | 0.08 | 99 | 1017.3 |
| 20260901012114 | 66 | 154 | 0.0 | 0.0 | 0.00 | 0.08 | 0.08 | 99 | 1017.1 |
| 20260901011610 | 66 | 154 | 0.0 | 0.0 | 0.00 | 0.08 | 0.08 | 99 | 1017.0 |
| 20260901011108 | 66 | 154 | 0.0 | 0.0 | 0.00 | 0.08 | 0.08 | 99 | 1017.1 |
| 20260901010604 | 66 | 155 | 0.0 | 0.0 | 0.00 | 0.08 | 0.08 | 99 | 1016.9 |
| 20260901005558 | 66 | 154 | 0.0 | 0.0 | 0.00 | 0.08 | 0.08 | 99 | 1017.1 |
| 20260901005053 | 66 | 154 | 0.0 | 0.0 | 0.00 | 0.08 | 0.08 | 99 | 1017.2 |
| 20260901004552 | 66 | 154 | 0.0 | 0.0 | 0.00 | 0.08 | 0.08 | 99 | 1017.3 |
| 20260901004047 | 66 | 154 | 0.0 | 0.0 | 0.00 | 0.08 | 0.08 | 99 | 1016.9 |
| 20260901003542 | 66 | 154 | 0.0 | 0.0 | 0.00 | 0.08 | 0.08 | 98 | 1017.1 |
| 20260901003040 | 66 | 154 | 0.0 | 0.0 | 0.00 | 0.08 | 0.08 | 98 | 1017.1 |
| 20260901002540 | 66 | 154 | 0.0 | 0.0 | 0.00 | 0.08 | 0.08 | 98 | 1016.8 |
| 20260901002035 | 66 | 154 | 0.0 | 0.0 | 0.00 | 0.08 | 0.08 | 98 | 1016.9 |
| 20260901001530 | 66 | 154 | 0.0 | 0.0 | 0.00 | 0.08 | 0.08 | 98 | 1016.9 |
| 20260901001025 | 66 | 154 | 0.0 | 0.0 | 0.00 | 0.08 | 0.08 | 98 | 1016.9 |
| 20260901000520 | 66 | 154 | 0.0 | 0.0 | 0.00 | 0.08 | 0.08 | 98 | 1016.9 |
| 20260901000016 | 66 | 157 | 0.0 | 0.0 | 0.00 | 0.08 | 0.08 | 98 | 1016.8 |
| 20260831235509 | 66 | 157 | 0.0 | 0.0 | 0.00 | 0.08 | 0.08 | 98 | 1016.9 |
| 20260831235005 | 66 | 156 | 0.0 | 0.0 | 0.00 | 0.08 | 0.08 | 98 | 1016.8 |
| 20260831234459 | 66 | 156 | 0.0 | 0.0 | 0.00 | 0.08 | 0.08 | 98 | 1016.8 |
| 20260831233954 | 67 | 156 | 0.0 | 0.0 | 0.00 | 0.08 | 0.08 | 98 | 1016.6 |
| 20260831233449 | 67 | 156 | 0.0 | 0.0 | 0.00 | 0.08 | 0.08 | 98 | 1016.9 |
| 20260831232945 | 67 | 156 | 0.0 | 0.0 | 0.00 | 0.08 | 0.08 | 98 | 1016.9 |
| 20260831232441 | 67 | 157 | 0.0 | 0.0 | 0.00 | 0.08 | 0.08 | 98 | 1016.9 |
| 20260831231936 | 67 | 157 | 0.0 | 0.0 | 0.00 | 0.08 | 0.08 | 98 | 1016.9 |
| 20260831231432 | 67 | 157 | 0.0 | 0.0 | 0.00 | 0.08 | 0.08 | 98 | 1017.0 |
| 20260831230928 | 67 | 157 | 0.0 | 0.0 | 0.00 | 0.08 | 0.08 | 98 | 1017.2 |
| 20260831230423 | 67 | 157 | 0.0 | 0.0 | 0.00 | 0.08 | 0.08 | 98 | 1017.0 |
| 20260831225917 | 67 | 157 | 0.0 | 0.0 | 0.00 | 0.08 | 0.08 | 98 | 1016.9 |
| 20260831225413 | 67 | 157 | 0.0 | 0.0 | 0.00 | 0.08 | 0.08 | 98 | 1017.0 |
| 20260831224908 | 67 | 162 | 0.0 | 0.0 | 0.00 | 0.08 | 0.08 | 98 | 1017.1 |
| 20260831224407 | 67 | 162 | 0.0 | 0.0 | 0.00 | 0.08 | 0.08 | 98 | 1017.2 |
| 20260831223902 | 67 | 161 | 0.0 | 0.0 | 0.07 | 0.08 | 0.08 | 98 | 1017.1 |
| 20260831223358 | 67 | 162 | 0.0 | 0.0 | 0.07 | 0.08 | 0.08 | 98 | 1017.1 |
| 20260831222855 | 67 | 162 | 0.0 | 0.0 | 0.00 | 0.07 | 0.07 | 98 | 1017.2 |
| 20260831222350 | 67 | 161 | 0.0 | 0.0 | 0.00 | 0.07 | 0.07 | 97 | 1017.3 |
| 20260831221845 | 67 | 162 | 0.0 | 0.0 | 0.00 | 0.07 | 0.07 | 97 | 1017.2 |
| 20260831221340 | 67 | 158 | 0.0 | 0.0 | 0.00 | 0.07 | 0.07 | 97 | 1017.3 |
| 20260831220835 | 67 | 158 | 0.0 | 0.0 | 0.00 | 0.07 | 0.07 | 97 | 1017.1 |
| 20260831220331 | 67 | 158 | 0.0 | 0.0 | 0.07 | 0.07 | 0.07 | 97 | 1017.1 |
| 20260831215826 | 67 | 155 | 0.0 | 0.0 | 0.07 | 0.07 | 0.07 | 97 | 1017.6 |
| 20260831215322 | 67 | 154 | 0.0 | 0.0 | 0.00 | 0.06 | 0.06 | 97 | 1017.4 |
| 20260831214818 | 67 | 156 | 0.0 | 0.0 | 0.00 | 0.06 | 0.06 | 97 | 1017.6 |
| 20260831214315 | 67 | 156 | 0.0 | 0.0 | 0.00 | 0.06 | 0.06 | 97 | 1017.3 |
| 20260831213810 | 67 | 156 | 0.0 | 0.0 | 0.00 | 0.06 | 0.06 | 97 | 1017.6 |
| 20260831213307 | 67 | 156 | 0.0 | 0.0 | 0.00 | 0.06 | 0.06 | 97 | 1017.4 |
| 20260831212802 | 67 | 156 | 0.0 | 0.0 | 0.00 | 0.06 | 0.06 | 97 | 1017.6 |
| 20260831212259 | 67 | 156 | 0.0 | 0.0 | 0.05 | 0.06 | 0.06 | 97 | 1017.6 |
| 20260831211756 | 67 | 156 | 0.0 | 0.0 | 0.05 | 0.06 | 0.06 | 97 | 1017.4 |
| 20260831211252 | 67 | 152 | 0.0 | 0.0 | 0.00 | 0.05 | 0.05 | 97 | 1017.8 |
| 20260831210746 | 67 | 153 | 0.0 | 0.0 | 0.00 | 0.05 | 0.05 | 97 | 1017.7 |
| 20260831210243 | 67 | 152 | 0.0 | 0.0 | 0.00 | 0.05 | 0.05 | 97 | 1017.6 |
| 20260831205742 | 67 | 150 | 0.0 | 0.0 | 0.00 | 0.05 | 0.05 | 97 | 1017.6 |
| 20260831205238 | 67 | 154 | 0.0 | 0.0 | 0.00 | 0.05 | 0.05 | 97 | 1017.8 |
| 20260831204737 | 67 | 156 | 0.0 | 0.0 | 0.00 | 0.05 | 0.05 | 97 | 1017.9 |
| 20260831204237 | 67 | 156 | 0.0 | 0.0 | 0.00 | 0.05 | 0.05 | 96 | 1018.2 |
| 20260831203736 | 67 | 156 | 0.0 | 0.0 | 0.00 | 0.05 | 0.05 | 96 | 1018.1 |
| 20260831203231 | 67 | 156 | 0.0 | 0.0 | 0.00 | 0.05 | 0.05 | 96 | 1018.1 |
| 20260831202729 | 67 | 156 | 0.0 | 0.0 | 0.00 | 0.05 | 0.05 | 96 | 1018.2 |
| 20260831202224 | 67 | 157 | 0.0 | 0.0 | 0.00 | 0.05 | 0.05 | 96 | 1018.1 |
| 20260831201719 | 67 | 155 | 0.0 | 0.0 | 0.00 | 0.05 | 0.05 | 96 | 1018.0 |
| 20260831201213 | 67 | 149 | 0.0 | 0.0 | 0.00 | 0.05 | 0.05 | 96 | 1018.0 |
| 20260831200708 | 67 | 149 | 0.0 | 0.0 | 0.00 | 0.05 | 0.05 | 96 | 1018.1 |
| 20260831200203 | 67 | 149 | 0.0 | 0.0 | 0.00 | 0.05 | 0.05 | 96 | 1018.2 |
| 20260831195658 | 67 | 149 | 0.0 | 0.0 | 0.00 | 0.05 | 0.05 | 97 | 1018.0 |
| 20260831195153 | 67 | 149 | 0.0 | 0.0 | 0.00 | 0.05 | 0.05 | 96 | 1018.1 |
| 20260831194648 | 67 | 149 | 0.0 | 0.0 | 0.00 | 0.05 | 0.05 | 96 | 1017.9 |
| 20260831194143 | 67 | 149 | 0.0 | 0.0 | 0.00 | 0.05 | 0.05 | 96 | 1018.0 |
| 20260831193637 | 66 | 149 | 0.0 | 0.0 | 0.00 | 0.05 | 0.05 | 96 | 1018.0 |
| 20260831193133 | 66 | 153 | 0.0 | 0.0 | 0.00 | 0.05 | 0.05 | 96 | 1018.1 |
| 20260831192628 | 66 | 156 | 0.0 | 0.0 | 0.00 | 0.05 | 0.05 | 96 | 1018.3 |
| 20260831192124 | 66 | 156 | 0.0 | 0.0 | 0.00 | 0.05 | 0.05 | 96 | 1018.2 |
| 20260831191619 | 66 | 156 | 0.0 | 0.0 | 0.00 | 0.05 | 0.05 | 96 | 1018.4 |
| 20260831191115 | 66 | 154 | 0.0 | 0.0 | 0.00 | 0.05 | 0.05 | 96 | 1018.0 |
| 20260831190610 | 66 | 153 | 0.0 | 0.0 | 0.00 | 0.05 | 0.05 | 96 | 1018.5 |
| 20260831190109 | 66 | 157 | 0.0 | 0.0 | 0.00 | 0.05 | 0.05 | 96 | 1018.3 |
| 20260831185605 | 66 | 152 | 0.0 | 0.0 | 0.00 | 0.05 | 0.05 | 96 | 1018.4 |
| 20260831185101 | 66 | 153 | 0.0 | 0.0 | 0.00 | 0.05 | 0.05 | 96 | 1018.8 |
| 20260831184600 | 67 | 156 | 0.0 | 0.0 | 0.00 | 0.05 | 0.05 | 97 | 1018.8 |
| 20260831184055 | 67 | 154 | 0.0 | 0.0 | 0.00 | 0.05 | 0.05 | 97 | 1018.6 |
| 20260831183555 | 67 | 157 | 0.0 | 0.0 | 0.00 | 0.05 | 0.05 | 97 | 1018.5 |
| 20260831183054 | 67 | 151 | 0.0 | 0.0 | 0.00 | 0.05 | 0.05 | 97 | 1019.1 |
| 20260831182548 | 67 | 156 | 0.0 | 0.0 | 0.00 | 0.05 | 0.05 | 97 | 1018.9 |
| 20260831182044 | 67 | 156 | 0.0 | 0.0 | 0.00 | 0.05 | 0.05 | 97 | 1018.8 |
| 20260831181544 | 67 | 157 | 0.0 | 0.0 | 0.00 | 0.05 | 0.05 | 97 | 1018.7 |
| 20260831181044 | 66 | 163 | 0.0 | 0.0 | 0.00 | 0.05 | 0.05 | 97 | 1018.6 |
| 20260831180539 | 67 | 154 | 0.0 | 0.0 | 0.00 | 0.05 | 0.05 | 98 | 1018.8 |
| 20260831180034 | 66 | 154 | 0.0 | 0.0 | 0.00 | 0.05 | 0.05 | 98 | 1018.7 |
| 20260831175529 | 66 | 152 | 0.0 | 0.0 | 0.00 | 0.05 | 0.05 | 98 | 1019.0 |
| 20260831175027 | 66 | 156 | 0.0 | 0.0 | 0.00 | 0.05 | 0.05 | 98 | 1019.1 |
| 20260831174526 | 66 | 162 | 0.0 | 0.0 | 0.00 | 0.05 | 0.05 | 98 | 1019.1 |
| 20260831174020 | 65 | 141 | 1.0 | 1.0 | 0.00 | 0.05 | 0.05 | 98 | 1019.3 |
| 20260831173519 | 65 | 154 | 0.0 | 1.0 | 0.00 | 0.05 | 0.05 | 98 | 1019.4 |
| 20260831173015 | 65 | 155 | 0.0 | 0.0 | 0.00 | 0.05 | 0.05 | 98 | 1019.0 |
| 20260831172510 | 65 | 156 | 0.0 | 0.0 | 0.00 | 0.05 | 0.05 | 98 | 1019.3 |
| 20260831172005 | 65 | 155 | 0.0 | 0.0 | 0.00 | 0.05 | 0.05 | 98 | 1019.2 |
| 20260831171501 | 65 | 154 | 0.0 | 0.0 | 0.00 | 0.05 | 0.05 | 98 | 1019.4 |
| 20260831170958 | 65 | 156 | 0.0 | 0.0 | 0.00 | 0.05 | 0.05 | 98 | 1019.3 |
| 20260831170453 | 65 | 153 | 0.0 | 0.0 | 0.00 | 0.05 | 0.05 | 98 | 1019.4 |
| 20260831165950 | 65 | 156 | 0.0 | 0.0 | 0.00 | 0.05 | 0.05 | 98 | 1019.3 |
| 20260831165445 | 65 | 156 | 0.0 | 0.0 | 0.00 | 0.05 | 0.05 | 98 | 1019.4 |
| 20260831164942 | 65 | 153 | 0.0 | 0.0 | 0.00 | 0.05 | 0.05 | 98 | 1019.6 |
| 20260831164433 | 65 | 156 | 0.0 | 0.0 | 0.00 | 0.05 | 0.05 | 98 | 1019.8 |
| 20260831163932 | 64 | 153 | 0.0 | 0.0 | 0.07 | 0.05 | 0.05 | 98 | 1019.7 |
| 20260831163423 | 64 | 155 | 0.0 | 0.0 | 0.07 | 0.05 | 0.05 | 98 | 1019.6 |
| 20260831162921 | 64 | 156 | 0.0 | 0.0 | 0.07 | 0.05 | 0.05 | 98 | 1019.9 |
| 20260831162417 | 64 | 160 | 0.0 | 0.0 | 0.00 | 0.04 | 0.04 | 98 | 1019.8 |
| 20260831161915 | 64 | 154 | 0.0 | 0.0 | 0.00 | 0.04 | 0.04 | 97 | 1019.9 |
| 20260831161412 | 65 | 154 | 0.0 | 0.0 | 0.00 | 0.04 | 0.04 | 97 | 1020.0 |